EHI
0 0 0 0 0 0 0 0 0 0 0 0 0 0 0 0 0 0 0 0 0 0 0 0 0 0 0 0 0 0 0 0 0 0 0 0 0 0 0 0 0 0 0 0
0 0 0 0 0 0 0 0 0 0 0 0 0 0 0 0 0 0 0 0 0 0 0 0 0 0 0 0 0 0 0 0 0 0 0 0 0 0 0 0 0 0 0 0
0 0 0 0 0 0 0 0 0 0 0 0 0 0 0 0 0 0 0 0 0 0 0 0 0 0 0 0 0 0 0 0 0 0 0 0 0 0 0 0 0 0 0 0
0 0 0 0 0 0 0 0 0 0 0 0 0 0 0 0 0 0 0 0 0 0 0 0 0 0 0 0 0 0 0 0 0 0 0 0 0 0 0 0 0 0 0 0
0 0 0 0 0 0 0 0 0 0 0 0 0 0 0 0 0 0 0 0 0 0 0 0 0 0 0 0 0 0 0 0 0 0 0 0 0 0 0 0 0 0 0 0
0 0 0 0 0 0 0 0 0 0 0 0 0 0 0 0 0 0 0 0 0 0 0 0 0 0 0 0 0 0 0 0 0 0 0 0 0 0 0 0 0 0 0 0
0 0 0 0 0 0 0 0 0 0 0 0 0 0 0 0 0 0 0 0 0 0 0 0 0 0 0 0 0 0 0 0 0 0 0 0 0 0 0 0 0 0 0 0
0 0 0 0 0 0 0 0 0 0 0 0 0 0 0 0 0 0 0 0 0 0 0 0 0 0 0 0 0 0 0 0 0 0 0 0 0 0 0 0 0 0 0 0
0 0 0 0 0 0 0 0 0 0 0 0 0 0 0 0 0 0 0 0 0 0 0 0 0 0 0 0 0 0 0 0 0 0 0 0 0 0 0 0 0 0 0 0
0 0 0 0 0 0 0 0 0 0 0 0 0 0 0 0 0 0 0 0 0 0 0 0 0 0 0 0 0 0 0 0 0 0 0 0 0 0 0 0 0 0 0 0
0 0 0 0 0 0 0 0 0 0 0 0 0 0 0 0 0 0 0 0 0 0 0 0 0 0 0 0 0 0 0 0 0 0 0 0 0 0 0 0 0 0 0 0
0 0 0 0 0 0 0 0 0 0 0 0 0 0 0 0 0 0 0 0 0 0 0 0 0 0 0 0 0 0 0 0 0 0 0 0 0 0 0 0 0 0 0 0
0 0 0 0 0 0 0 0 0 0 0 0 0 0 0 0 0 0 0 0 0 0 0 0 0 0 0 0 0 0 0 0 0 0 0 0 0 0 0 0 0 0 0 0
0 0 0 0 0 0 0 0 0 0 0 0 0 0 0 0 0 0 0 0 0 0 0 0 0 0 0 0 0 0 0 0 0 0 0 0 0 0 0 0 0 0 0 0
0 0 0 0 0 0 0 0 0 0 0 0 0 0 0 0 0 0 0 0 0 0 0 0 0 0 0 0 0 0 0 0 0 0 0 0 0 0 0 0 0 0 0 0
0 0 0 0 0 0 0 0 0 0 0 0 0 0 0 0 0 0 0 0 0 0 0 0 0 0 0 0 0 0 0 0 0 0 0 0 0 0 0 0 0 0 0 0
0 0 0 0 0 0 0 0 0 0 0 0 0 0 0 0 0 0 0 0 0 0 0 0 0 0 0 0 0 0 0 0 0 0 0 0 0 0 0 0 0 0 0 0
0 0 0 0 0 0 0 0 0 0 0 0 0 0 0 0 0 0 0 0 0 0 0 0 0 0 0 0 0 0 0 0 0 0 0 0 0 0 0 0 0 0 0 0
0 0 0 0 0 0 0 0 0 0 0 0 0 0 0 0 0 0 0 0 0 0 0 0 0 0 0 0 0 0 0 0 0 0 0 0 0 0 0 0 0 0 0 0
0 0 0 0 0 0 0 0 0 0 0 0 0 0 0 0 0 0 0 0 0 0 0 0 0 0 0 0 0 0 0 0 0 0 0 0 0 0 0 0 0 0 0 0
0 0 0 0 0 0 0 0 0 0 0 0 0 0 0 0 0 0 0 0 0 0 0 0 0 0 0 0 0 0 0 0 0 0 0 0 0 0 0 0 0 0 0 0
0 0 0 0 0 0 0 0 0 0 0 0 0 0 0 0 0 0 0 0 0 0 0 0 0 0 0 0 0 0 0 0 0 0 0 0 0 0 0 0 0 0 0 0
0 0 0 0 0 0 0 0 0 0 0 0 0 0 0 0 0 0 0 0 0 0 0 0 0 0 0 0 0 0 0 0 0 0 0 0 0 0 0 0 0 0 0 0
0 0 0 0 0 0 0 0 0 0 0 0 0 0 0 0 0 0 0 0 0 0 0 0 0 0 0 0 0 0 0 0 0 0 0 0 0 0 0 0 0 0 0 0
0 0 0 0 0 0 0 0 0 0 0 0 0 0 0 0 0 0 0 0 0 0 0 0 0 0 0 0 0 0 0 0 0 0 0 0 0 0 0 0 0 0 0 0
0 0 0 0 0 0 0 0 0 0 0 0 0 0 0 0 0 0 0 0 0 0 0 0 0 0 0 0 0 0 0 0 0 0 0 0 0 0 0 0 0 0 0 0
Wind_Speed
8 6 8 7 6 5 6 7 8 8 5 3 8 13 13 10 8 8 7 7 7 7 8 9 9 9 8 7 8 9 10 8 7 6 5 5 4 4 3 3 5 5 4 4
8 11 10 6 3 4 7 9 10 8 3 4 9 14 14 9 7 6 6 6 6 6 6 8 9 9 9 9 8 9 10 9 8 6 5 5 5 4 4 4 4 5 4 4
14 6 7 8 7 7 9 9 8 7 8 8 8 10 7 3 4 4 5 5 5 5 6 8 9 9 8 9 9 8 10 9 8 7 5 5 3 3 3 4 3 4 5 4
11 9 5 7 8 8 8 4 4 6 6 5 4 7 7 4 4 4 4 4 4 4 5 8 10 10 9 8 8 8 9 9 8 8 8 8 6 5 5 4 4 4 5 5
7 8 9 9 8 7 4 0 3 6 6 7 7 7 7 4 4 3 3 3 3 4 4 6 9 9 8 8 7 7 8 9 9 8 9 8 6 5 4 5 6 5 4 5
8 3 6 7 3 3 1 2 6 5 4 7 7 7 6 2 2 2 2 3 3 3 4 4 6 8 7 7 7 7 8 8 9 9 9 9 8 7 7 6 6 5 3 4
10 9 5 3 4 4 4 3 3 4 5 7 3 4 7 2 3 2 2 2 3 4 4 5 6 8 8 8 8 8 8 8 9 9 9 9 9 9 8 7 6 5 4 4
10 10 12 8 7 6 8 7 5 3 3 2 3 7 5 4 5 3 2 2 3 3 4 5 7 8 8 9 9 9 9 9 9 9 9 8 8 6 5 7 6 6 5 5
9 7 7 8 5 4 7 9 5 4 6 5 6 6 4 4 5 4 4 4 4 4 5 5 6 8 8 9 10 10 10 9 9 9 9 8 8 7 6 7 6 5 5 5
5 4 7 6 4 5 4 3 3 5 5 6 7 8 5 6 6 4 4 4 4 4 4 5 6 7 8 8 8 9 9 9 8 8 8 7 7 7 7 6 6 6 6 6
8 5 5 6 11 11 8 6 6 5 5 4 4 4 1 4 5 4 3 4 3 3 4 4 4 5 6 6 7 8 8 8 8 8 7 7 7 6 6 6 6 6 5 6
9 4 6 7 6 5 10 11 10 6 6 6 4 6 1 3 4 3 2 3 4 4 4 4 4 4 5 6 6 7 7 8 8 7 7 7 6 6 6 6 6 6 6 6
9 6 5 5 3 5 7 11 11 9 5 6 7 7 2 3 3 3 3 4 3 3 4 3 3 4 4 5 5 6 6 6 6 6 6 6 6 6 6 6 6 6 6 6
6 6 8 8 4 8 9 11 11 10 9 10 12 11 6 4 4 3 3 3 2 2 3 3 2 3 3 4 5 5 5 5 5 6 6 6 6 6 6 5 5 5 5 5
4 6 8 8 4 4 8 10 13 15 14 11 11 12 11 7 5 4 3 2 1 2 2 3 3 3 3 3 4 4 4 4 4 5 5 5 5 4 4 4 5 4 5 5
4 5 7 9 7 6 8 10 13 15 15 16 14 16 11 8 5 4 3 2 2 2 3 3 3 3 3 3 3 4 4 4 4 4 4 4 4 4 4 4 4 4 4 4
6 5 5 7 8 6 11 13 14 13 12 12 16 16 9 8 7 4 3 2 3 3 3 3 3 3 3 3 3 4 4 4 4 4 4 4 4 4 4 4 4 4 5 5
7 7 4 3 4 11 10 7 11 13 14 13 12 10 8 7 4 3 3 4 4 3 3 3 3 3 2 2 3 3 3 4 4 3 3 4 4 4 4 4 4 4 4 4
8 8 5 4 6 9 7 7 8 10 11 11 12 11 8 3 2 5 5 4 3 2 3 3 3 3 3 3 4 4 3 3 3 4 3 3 4 4 4 4 4 4 4 4
4 6 5 5 6 9 5 6 5 4 8 9 10 9 5 3 3 5 2 3 3 3 3 3 3 3 3 3 4 4 3 3 3 3 3 2 3 3 4 4 4 3 4 4
6 6 9 7 7 9 4 5 8 7 8 4 5 5 5 7 7 4 4 3 3 3 3 3 3 3 3 3 4 3 3 3 2 2 2 2 2 3 3 3 3 3 3 4
11 9 9 8 8 10 6 8 10 8 2 2 3 4 4 5 3 3 3 4 4 3 3 4 3 3 3 3 4 3 3 2 3 2 2 2 2 2 2 2 3 3 3 4
11 11 7 10 11 5 10 10 8 3 3 3 3 3 4 4 4 4 4 4 4 4 4 3 4 3 3 3 3 3 2 3 3 2 1 1 2 2 2 3 3 3 3 4
7 7 7 7 7 6 7 6 5 5 5 4 4 4 4 5 5 4 4 4 4 4 4 4 4 4 3 2 3 3 3 3 2 2 2 2 2 2 2 2 3 3 3 4
7 6 7 9 6 5 7 8 7 6 4 3 3 4 5 5 5 5 4 5 4 4 3 4 4 4 3 3 3 3 3 3 2 1 2 2 2 2 3 3 3 4 4 5
7 8 9 9 7 7 7 6 6 6 6 6 5 4 3 5 5 5 4 4 4 4 4 4 4 3 3 3 3 2 2 2 2 1 1 2 2 2 3 3 4 6 9 13
Wind_Direction
198 221 226 226 225 261 297 293 287 285 286 264 262 271 275 266 251 242 235 230 225 212 187 174 168 163 165 170 172 170 168 174 168 161 162 162 167 164 160 160 165 166 168 167
210 225 233 233 233 251 265 273 280 287 312 301 276 278 275 257 238 232 237 236 230 213 184 167 162 163 170 176 178 175 171 172 173 168 165 162 160 165 164 163 170 171 174 171
221 214 208 224 228 237 248 255 272 297 317 275 268 285 267 237 207 209 224 224 224 212 192 169 168 172 173 178 180 179 173 170 172 164 151 143 133 135 153 171 174 179 175 172
232 226 199 217 231 230 253 260 277 292 299 293 310 295 279 220 190 200 205 200 208 212 196 174 170 174 178 180 173 175 170 169 173 167 164 166 170 174 180 171 170 181 181 175
223 202 204 219 225 228 241 58 275 272 274 279 259 255 271 219 191 193 170 166 184 190 186 176 171 174 174 168 165 171 170 173 176 176 175 178 179 178 165 164 173 182 183 174
242 209 203 220 217 233 220 255 260 247 257 259 235 226 273 233 165 142 126 139 156 162 172 172 163 160 162 160 161 169 175 179 180 182 181 183 184 181 177 177 178 178 172 175
226 216 194 172 185 190 194 212 250 215 212 238 193 218 252 203 110 105 119 126 136 149 165 175 169 169 169 167 170 177 183 186 186 187 189 190 189 189 188 181 177 174 174 182
208 211 189 186 200 186 197 213 226 248 254 278 205 229 243 147 125 125 140 144 140 150 169 184 183 180 179 178 178 184 192 194 190 191 194 195 191 189 187 178 173 181 185 187
206 207 164 172 195 208 196 214 242 291 291 278 252 238 213 145 142 167 172 166 168 169 177 187 187 185 185 185 187 189 194 197 196 193 192 195 193 189 185 179 177 182 182 181
256 195 160 157 167 226 243 228 191 213 241 254 255 246 228 176 183 184 176 172 168 171 180 187 192 193 192 190 189 189 193 198 198 194 193 194 194 190 181 177 182 182 182 175
238 229 162 168 195 195 193 214 215 220 240 244 270 269 85 149 156 170 177 158 162 181 186 189 195 192 188 186 186 190 193 196 196 196 194 192 191 185 180 181 185 182 179 174
210 229 212 205 191 198 198 207 206 212 230 224 250 268 193 120 126 150 189 190 197 189 177 179 186 183 186 190 191 191 193 196 195 191 192 192 188 182 184 187 187 181 181 181
189 207 210 184 182 209 221 218 220 231 254 247 240 255 200 144 170 194 216 225 219 183 170 176 179 186 193 192 191 192 195 195 189 183 186 187 185 185 189 190 186 182 181 184
194 213 211 210 197 178 205 216 216 218 229 240 239 254 263 251 253 255 244 234 209 177 170 174 188 199 198 191 188 189 194 187 181 178 182 189 190 188 189 186 183 183 182 189
204 223 233 246 244 201 209 212 214 221 229 238 248 254 260 269 270 267 258 240 207 189 184 187 196 209 203 193 186 183 186 181 176 177 185 190 184 179 179 182 183 184 189 198
208 228 232 243 239 241 245 231 222 225 233 243 258 264 265 276 280 281 276 247 231 232 206 191 189 198 204 195 185 181 179 175 166 175 183 178 176 179 183 186 186 190 198 203
187 212 212 234 230 251 247 226 225 226 225 228 243 252 264 270 268 264 269 257 240 229 204 188 191 193 189 183 175 179 171 157 159 173 177 176 177 183 186 185 188 200 207 212
195 213 220 215 201 233 238 214 214 226 234 228 238 251 250 251 257 254 246 242 240 217 192 181 175 170 166 158 153 149 142 149 162 176 183 182 181 188 188 192 204 213 214 218
207 203 208 191 221 255 242 217 205 214 240 229 237 247 249 244 311 281 247 213 200 182 160 153 149 149 150 154 147 140 150 156 168 185 189 183 182 190 195 205 215 220 224 233
217 211 205 197 212 233 227 188 168 170 257 233 223 233 228 165 232 252 186 140 139 125 123 128 126 130 140 143 134 141 161 164 184 186 178 172 181 195 206 215 223 227 229 238
184 201 209 210 226 252 229 155 130 181 237 204 193 203 194 196 211 200 153 146 146 142 140 133 132 138 144 135 134 151 162 178 168 141 143 170 197 209 217 225 229 234 241 246
179 187 199 199 218 239 179 156 183 210 190 177 185 196 200 202 182 164 160 157 152 150 147 143 140 138 127 128 137 154 170 152 124 128 154 195 216 221 224 230 242 241 241 251
198 196 192 200 215 213 173 191 205 189 199 211 203 203 186 191 196 189 182 175 171 166 161 149 143 137 132 136 142 156 155 124 121 135 185 219 230 236 236 234 244 251 248 251
217 200 216 231 229 209 201 211 213 207 210 210 202 195 185 197 200 191 181 176 171 163 158 147 144 150 155 142 133 143 136 130 138 174 213 224 237 251 251 247 240 245 248 255
202 191 217 237 238 229 224 221 226 225 213 211 209 198 195 194 198 189 180 176 168 159 151 146 154 159 157 142 135 132 132 132 156 198 221 238 248 255 263 259 250 255 245 251
210 202 210 230 217 215 226 211 212 211 213 208 200 201 198 189 189 176 172 164 153 150 143 145 150 151 150 142 138 135 134 145 168 204 233 244 256 264 267 276 288 282 278 286